Hourly Data Report for January 04, 2021

TORONTO CITY
ONTARIO
Current Station Operator: ECCC - MSC

43°40'00.000" N
79°24'00.000" W
112.50 m
6158355
71508
XTO

Download Data

Hourly Data (January 2021)
Hourly Data Report for January 4, 2021
TIME
LST
Temp Definition
°C
Dew Point Definition
°C
Rel Hum Definition
%
Precip. Amount Definition
mm

Wind Dir Definition
10's deg

Wind Spd Definition
km/h
Visibility Definition
km
Stn Press Definition
kPa
Hmdx Definition


Wind Chill Definition


Weather Definition


00:00 0.8 -1.5 85 0.0       100.16     LegendNANA
01:00 0.5 -2.0 84 0.0       100.14     LegendNANA
02:00 0.7 -2.0 82 0.0       100.18     LegendNANA
03:00 0.6 -1.9 83 0.0       100.23     LegendNANA
04:00 0.7 -2.1 81 0.0       100.24     LegendNANA
05:00 0.3 -2.3 82 0.0       100.27     LegendNANA
06:00 0.4 -2.2 83 0.0       100.29     LegendNANA
07:00 0.3 -2.2 83 0.0       100.34     LegendNANA
08:00 0.4 -1.8 85 0.0       100.40     LegendNANA
09:00 0.2 -2.0 85 0.0       100.43     LegendNANA
10:00 0.1 -2.2 85 0.0       100.44     LegendNANA
11:00 0.4 -2.7 80 0.0       100.39     LegendNANA
12:00 0.4 -2.4 81 0.0       100.28     LegendNANA
13:00 0.7 -2.0 82 0.0       100.20     LegendNANA
14:00 1.0 -1.8 82 0.0       100.15     LegendNANA
15:00 1.3 -1.8 80 0.0       100.15     LegendNANA
16:00 1.5 -1.7 79 0.0       100.18     LegendNANA
17:00 1.4 -1.3 82 0.0       100.19     LegendNANA
18:00 1.3 -1.3 83 0.0       100.19     LegendNANA
19:00 1.3 -1.2 83 0.0       100.20     LegendNANA
20:00 1.4 -1.1 84 0.0       100.15     LegendNANA
21:00 1.5 -1.1 83 0.0       100.11     LegendNANA
22:00 1.4 -1.2 83 0.0       100.09     LegendNANA
23:00 1.2 -1.3 83 0.0       100.06     LegendNANA

Notes on Data Quality.

Legend

  • E = Estimated
  • M = Missing
  • NA = Not Available*
  • [empty] = Indicates an unobserved value
Date modified: